Weather History for Aurora, NE

Change the Weather History Date:

Friday, January 18, 2013

  Actual Average Record
Temperature  
Mean Temperature 38 °F -  
Max Temperature 44 °F 33 °F 62 °F (2006)
Min Temperature 32 °F 14 °F -13 °F (1978)
Degree Days  
Heating Degree Days 27    
Moisture  
Dew Point 30 °F    
Average Humidity 76    
Maximum Humidity 85    
Minimum Humidity 66    
Precipitation  
Precipitation 0.00 in - - ()
Sea Level Pressure  
Sea Level Pressure 30.02 in    
Wind  
Wind Speed 12 mph (SW)    
Max Wind Speed 20 mph    
Max Gust Speed 24 mph    
Visibility 10 miles    
Events      
Averages and records for this station are not official NWS values.
T = Trace of Precipitation, MM = Missing Value Source: NWS Daily Summary

Daily Weather History Graph

Daily Weather History Graph

Search for Another Location

Airport:

Trip Planner

Search our weather history database for the weather conditions in past years. The results will help you decide how hot, cold, wet, or windy it might be!

Date:

Astronomy

Jan. 18, 2013 Rise Set
Actual Time 7:52 AM CST 5:32 PM CST
Civil Twilight 7:22 AM CST 6:02 PM CST
Nautical Twilight 6:49 AM CST 6:36 PM CST
Astronomical Twilight 6:16 AM CST 7:09 PM CST
Moon 11:28 AM CST (1/18) 12:27 AM CST (1/18)
Length of Visible Light 10h 39m
Length of Day
9h 39m
Waxing Crescent, 47% of the Moon is Illuminated
Jan 18
Waxing Crescent
Jan 18
First Quarter
Jan 26
Full
Feb 3
Last Quarter
Feb 10
New

Hourly Weather History & Observations

Time (CST) Temp. Windchill Dew Point Humidity Pressure Visibility Wind Dir Wind Speed Gust Speed Precip Events Conditions
12:15 AM 33.8 °F 27.0 °F 28.4 °F 81% 30.22 in 10.0 mi SSW 8.1 mph - N/A   Clear
12:35 AM 33.3 °F 27.1 °F 28.2 °F 82% 30.22 in 10.0 mi SSW 6.9 mph - N/A   Clear
12:55 AM 34.0 °F 26.6 °F 28.2 °F 79% 30.21 in 10.0 mi SSW 9.2 mph - N/A   Clear
1:15 AM 34.3 °F 25.9 °F 28.4 °F 79% 30.20 in 10.0 mi SW 11.5 mph - N/A   Clear
1:35 AM 33.8 °F 25.3 °F 28.2 °F 80% 30.20 in 10.0 mi SW 11.5 mph - N/A   Clear
1:55 AM 33.1 °F 25.5 °F 27.9 °F 81% 30.20 in 10.0 mi SW 9.2 mph - N/A   Clear
2:15 AM 32.9 °F 24.7 °F 27.7 °F 81% 30.19 in 10.0 mi SW 10.4 mph - N/A   Clear
2:35 AM 33.1 °F 24.4 °F 27.7 °F 81% 30.19 in 10.0 mi SW 11.5 mph - N/A   Clear
2:55 AM 33.8 °F 25.3 °F 27.5 °F 78% 30.18 in 10.0 mi SW 11.5 mph - N/A   Clear
3:15 AM 34.2 °F 26.2 °F 27.5 °F 77% 30.17 in 10.0 mi SW 10.4 mph - N/A   Clear
3:35 AM 33.3 °F 26.4 °F 27.3 °F 79% 30.16 in 10.0 mi SSW 8.1 mph - N/A   Clear
3:55 AM 32.5 °F 24.8 °F 27.0 °F 80% 30.15 in 10.0 mi SSW 9.2 mph - N/A   Clear
4:15 AM 32.9 °F 24.1 °F 27.0 °F 79% 30.13 in 10.0 mi SSW 11.5 mph - N/A   Clear
4:35 AM 32.9 °F 25.3 °F 27.0 °F 79% 30.11 in 10.0 mi SSW 9.2 mph - N/A   Clear
4:55 AM 32.2 °F 23.8 °F 26.8 °F 80% 30.11 in 10.0 mi SSW 10.4 mph - N/A   Clear
5:15 AM 33.8 °F 23.9 °F 27.1 °F 77% 30.09 in 10.0 mi SSW 15.0 mph - N/A   Clear
5:35 AM 34.0 °F 24.2 °F 27.3 °F 77% 30.07 in 10.0 mi SSW 15.0 mph - N/A   Clear
5:55 AM 34.2 °F 24.8 °F 27.5 °F 77% 30.07 in 10.0 mi SSW 13.8 mph - N/A   Clear
6:15 AM 33.8 °F 23.9 °F 27.5 °F 78% 30.05 in 10.0 mi SSW 15.0 mph 19.6 mph N/A   Clear
6:35 AM 33.8 °F 23.9 °F 27.5 °F 78% 30.05 in 10.0 mi SSW 15.0 mph 21.9 mph N/A   Clear
6:55 AM 33.6 °F 23.3 °F 27.9 °F 79% 30.05 in 10.0 mi SW 16.1 mph - N/A   Clear
7:15 AM 33.4 °F 23.9 °F 27.9 °F 80% 30.05 in 10.0 mi SW 13.8 mph 20.7 mph N/A   Clear
7:35 AM 32.5 °F 21.9 °F 27.7 °F 82% 30.03 in 10.0 mi SW 16.1 mph - N/A   Clear
7:55 AM 32.9 °F 22.0 °F 27.9 °F 82% 30.02 in 10.0 mi SW 17.3 mph - N/A   Clear
8:15 AM 32.9 °F 22.4 °F 27.5 °F 81% 30.02 in 10.0 mi SW 16.1 mph - N/A   Clear
8:35 AM 33.1 °F 23.4 °F 28.0 °F 82% 30.04 in 10.0 mi WSW 13.8 mph - N/A   Clear
8:55 AM 33.4 °F 23.5 °F 28.2 °F 81% 30.04 in 10.0 mi SW 15.0 mph - N/A   Clear
9:15 AM 34.0 °F 23.8 °F 28.2 °F 79% 30.04 in 10.0 mi SW 16.1 mph - N/A   Clear
9:35 AM 34.7 °F 23.7 °F 28.4 °F 78% 30.03 in 10.0 mi SW 19.6 mph 24.2 mph N/A   Clear
10:15 AM 36.0 °F 26.3 °F 29.5 °F 77% 30.03 in 10.0 mi SW 16.1 mph - N/A   Clear
10:35 AM 36.7 °F 27.2 °F 29.5 °F 75% 30.02 in 10.0 mi WSW 16.1 mph 21.9 mph N/A   Clear
10:55 AM 37.6 °F 28.4 °F 30.2 °F 75% 30.02 in 10.0 mi WSW 16.1 mph 20.7 mph N/A   Clear
11:15 AM 38.3 °F 29.3 °F 29.8 °F 72% 30.01 in 10.0 mi WSW 16.1 mph - N/A   Clear
11:35 AM 39.2 °F 30.5 °F 30.2 °F 70% 30.00 in 10.0 mi WSW 16.1 mph 20.7 mph N/A   Clear
11:55 AM 39.6 °F 30.6 °F 30.6 °F 70% 29.99 in 10.0 mi SW 17.3 mph - N/A   Clear
12:15 PM 40.1 °F 31.3 °F 31.3 °F 71% 29.98 in 10.0 mi SW 17.3 mph - N/A   Clear
12:35 PM 41.0 °F 32.8 °F 31.5 °F 69% 29.97 in 10.0 mi WSW 16.1 mph 21.9 mph N/A   Clear
12:55 PM 41.5 °F 34.2 °F 32.0 °F 69% 29.97 in 10.0 mi WSW 13.8 mph - N/A   Clear
1:15 PM 41.9 °F 34.0 °F 32.0 °F 68% 29.96 in 10.0 mi WSW 16.1 mph - N/A   Clear
1:35 PM 42.8 °F 35.1 °F 32.0 °F 66% 29.96 in 10.0 mi WSW 16.1 mph - N/A   Clear
1:55 PM 43.5 °F 37.1 °F 33.1 °F 67% 29.96 in 10.0 mi SW 12.7 mph - N/A   Clear
2:15 PM 43.9 °F 37.5 °F 33.3 °F 66% 29.96 in 10.0 mi WSW 12.7 mph - N/A   Clear
2:35 PM 44.6 °F 39.2 °F 34.0 °F 66% 29.96 in 10.0 mi WSW 10.4 mph - N/A   Clear
2:55 PM 44.6 °F 38.1 °F 33.8 °F 66% 29.95 in 10.0 mi SW 13.8 mph - N/A   Clear
3:15 PM 44.6 °F 38.4 °F 34.5 °F 68% 29.95 in 10.0 mi SW 12.7 mph - N/A   Clear
3:35 PM 43.9 °F 36.8 °F 34.7 °F 70% 29.94 in 10.0 mi SW 15.0 mph - N/A   Clear
3:55 PM 43.3 °F 36.8 °F 33.6 °F 69% 29.93 in 10.0 mi SW 12.7 mph - N/A   Clear
4:15 PM 42.8 °F 36.6 °F 34.0 °F 71% 29.94 in 10.0 mi SW 11.5 mph - N/A   Clear
4:35 PM 42.3 °F 36.3 °F 33.4 °F 71% 29.94 in 10.0 mi SW 10.4 mph - N/A   Clear
4:55 PM 42.1 °F 35.2 °F 32.9 °F 70% 29.94 in 10.0 mi SW 12.7 mph - N/A   Clear
5:15 PM 41.0 °F 33.9 °F 32.4 °F 71% 29.94 in 10.0 mi SW 12.7 mph - N/A   Clear
5:35 PM 39.6 °F 32.5 °F 32.2 °F 75% 29.94 in 10.0 mi SW 11.5 mph - N/A   Clear
5:55 PM 38.7 °F 31.8 °F 32.0 °F 77% 29.95 in 10.0 mi SW 10.4 mph - N/A   Clear
6:15 PM 39.4 °F 31.8 °F 32.0 °F 75% 29.95 in 10.0 mi SW 12.7 mph - N/A   Clear
6:35 PM 39.6 °F 32.5 °F 32.0 °F 74% 29.95 in 10.0 mi SW 11.5 mph - N/A   Clear
6:55 PM 38.7 °F 31.8 °F 32.0 °F 77% 29.95 in 10.0 mi SW 10.4 mph - N/A   Clear
7:15 PM 39.2 °F 31.6 °F 31.6 °F 74% 29.95 in 10.0 mi SW 12.7 mph - N/A   Clear
7:35 PM 38.8 °F 31.2 °F 31.6 °F 75% 29.95 in 10.0 mi WSW 12.7 mph - N/A   Clear
7:55 PM 39.2 °F 31.6 °F 31.6 °F 74% 29.94 in 10.0 mi SW 12.7 mph - N/A   Clear
8:15 PM 38.5 °F 31.1 °F 31.1 °F 75% 29.93 in 10.0 mi SW 11.5 mph - N/A   Clear
8:35 PM 37.9 °F 31.5 °F 31.1 °F 76% 29.93 in 10.0 mi WSW 9.2 mph - N/A   Clear
8:55 PM 36.7 °F 29.9 °F 30.9 °F 80% 29.93 in 10.0 mi WSW 9.2 mph - N/A   Clear
9:15 PM 37.8 °F 30.2 °F 30.7 °F 76% 29.92 in 10.0 mi WSW 11.5 mph - N/A   Clear
9:35 PM 36.9 °F 29.6 °F 30.6 °F 78% 29.92 in 10.0 mi WSW 10.4 mph - N/A   Clear
9:55 PM 36.5 °F 28.7 °F 30.4 °F 78% 29.92 in 10.0 mi WSW 11.5 mph - N/A   Clear
10:15 PM 35.8 °F 28.3 °F 30.4 °F 81% 29.92 in 10.0 mi WSW 10.4 mph - N/A   Clear
10:35 PM 35.1 °F 27.9 °F 30.2 °F 82% 29.92 in 10.0 mi WSW 9.2 mph - N/A   Clear
10:55 PM 34.2 °F 28.2 °F 30.0 °F 85% 29.91 in 10.0 mi WSW 6.9 mph - N/A   Clear
11:15 PM 34.2 °F 26.8 °F 29.8 °F 84% 29.90 in 10.0 mi WSW 9.2 mph - N/A   Clear
11:35 PM 33.6 °F 26.2 °F 29.7 °F 85% 29.91 in 10.0 mi WSW 9.2 mph - N/A   Clear
11:55 PM 34.7 °F 27.5 °F 29.8 °F 82% 29.90 in 10.0 mi WSW 9.2 mph - N/A   Clear